Location: Amsterdam
(30.7274°N, 84.4357°W)
Time: 08:35:41
(UTC+00:00)

Transit 2A Rocket - Pass Details

Date: 07 February 2026
Orbit: 583 x 900 km, 66.7° (Epoch: 7 March)

Event Time Altitude Azimuth Distance (km) Brightness Sun altitude
Rises 00:13:34 0° 217° (SW) 3,393 9.1 -12.3°
Reaches altitude 10° 00:16:03 10° 222° (SW) 2,495 8.5 -12.9°
Maximum altitude 00:21:44 52° 298° (WNW) 1,091 6.1 -14.1°
Drops below altitude 10° 00:27:37 10° 15° (NNE) 2,578 7.5 -15.3°
Sets 00:30:13 0° 20° (NNE) 3,515 8.1 -15.9°
